Details From SBSJ - Sao Jose Dos Campos
To SBSP - Sao Paulo Congonhas
Flight Number -
Tags decoded
Created
Modified
Stats Distance 51 nm / 94 km
Max Altitude 0 ft / 0 m
Waypoints 3
Social Downloads 0
Likes 0
Share VATSIM

Download

Looking for another format? Having issues loading an existing format? Contact us
Advertisement - Login to hide

Notes

Requested: SBSJ BCO SBSP

Route

SBSJ BCO SBSP

ID Type Via Altitude Latitude Longitude Leg Dist Tot Dist Heading (true) Name
O SBSJ APT - 0 ft / 0 m -23.22817˚ -45.86274˚ - 0 nm - Sao Jose Dos Campos
BCO VOR - 0 ft / 0 m -23.40633˚ -46.38550˚ 30 nm 30 nm 250° / 250° BONSUCESSO VOR-DME
O SBSP APT - 0 ft / 0 m -23.62669˚ -46.65538˚ 19 nm 50 nm 228° / 228° Sao Paulo Congonhas

Altitude Profile

Advertisement - Login to hide

SBSJ

Details ICAO SBSJ (SJK)
Name Sao Jose Dos Campos
Region Brazil
Timezone America/Sao_Paulo (UTC-2.0)
Stats Elevation 2,120 ft / 646 m (AMSL)
Location -23.228171° -45.862738°
Runways 1
Magnetic Variation 21.710° W

METAR

SBSJ 150600Z 00000KT 9999 FEW040 16/15 Q1015

Decode

TAF

TAF SBSJ 150130Z 1506/1606 07005KT 7000 SCT015TN18/1508Z TX30/1517Z PROB30 1508/1511 4000 BR BKN012 BECMG 1511/1513 20010KT 8000 SCT020 PROB30 1518/1522 TS BKN015 FEW030CB BECMG 1602/1603 14010KT BECMG 1604/1606 10005KT SCT015 RMK PGZ

Decode

Departure Runways

ID Width Length Bearing (true) Bearing (mag) Surface Threshold Offset Overrun Length
15 148 ft / 45 m 8,741 ft / 2,664 m 135.13° 156.84° Asphalt 0 ft / 0 m 0 ft / 0 m
33 148 ft / 45 m 8,741 ft / 2,664 m 315.12° 336.83° Asphalt 0 ft / 0 m 0 ft / 0 m

SBSP

Details ICAO SBSP (CGH)
Name Sao Paulo Congonhas
Region Brazil
Timezone America/Sao_Paulo (UTC-2.0)
Stats Elevation 2,631 ft / 802 m (AMSL)
Location -23.626693° -46.655377°
Runways 2
Magnetic Variation 21.295° W

METAR

SBSP 150600Z AUTO 05005KT CAVOK 20/15 Q1016

Decode

TAF

TAF SBSP 150100Z 1506/1606 05005KT CAVOK TN20/1508Z TX30/1517Z PROB30 1508/1511 4000 BR BKN005 BECMG 1511/1513 9999 SCT030 BECMG 1514/1516 33008KT SCT035 FEW040TCU PROB30 1516/1521 BKN009 BECMG 1521/1523 10004KT CAVOK RMK PHH

Decode

Destination Runways

ID Width Length Bearing (true) Bearing (mag) Surface Threshold Offset Overrun Length
17L 147 ft / 45 m 4,726 ft / 1,441 m 147.28° 168.57° Asphalt 0 ft / 0 m 220 ft / 67 m
17R 147 ft / 45 m 6,406 ft / 1,953 m 147.39° 168.68° Asphalt 413 ft / 126 m 0 ft / 0 m
35L 147 ft / 45 m 6,406 ft / 1,953 m 327.38° 348.67° Asphalt 200 ft / 61 m 0 ft / 0 m
35R 147 ft / 45 m 4,726 ft / 1,441 m 327.28° 348.57° Asphalt 0 ft / 0 m 0 ft / 0 m

Approach Navaids

Runway Type Ident Frequency Range Bearing (true) Bearing (mag) Slope Elevation
17R Localiser ISP 109.30 MHz 18 nm / 33 km 147.03° 168.32° - 2,631 ft / 802 m (AMSL)
17R Glidescope ISP 109.30 MHz 10 nm / 19 km 147.38° 168.68° 2.90° 2,631 ft / 802 m (AMSL)
35L Localiser ICO 110.10 MHz 18 nm / 33 km 328.14° 349.44° - 2,631 ft / 802 m (AMSL)

Popular Alternatives